COSMOS 1375 DEB, 17803

Orbit data source: Space-Track

COSMOS 1375 DEB, 17803 is space debris in LEO originally from a launch on Sun, 06 Jun 1982 UTC launched from the Plesetsk Missile And Space Complex (PKMTR). Debris objects in space refer to the collection of defunct objects orbiting the Earth. Examples of debris include non-operational satellites, rocket bodies, and fragments generated from explosions, collisions, or faulty payload assembly.

Loading next visibility...
Identifier
17803, 1982-055AV
Orbit
LEO
Country
Flag of CISCIS
Related business
Manufacturer
Unknown
Mission
Spacecraft
Bus & Motor
Unknown
Mass
Unknown
Launch date (UTC)
1982-06-06 (44 years ago)
Launch vehicle
Unknown
Launch site
Plesetsk Missile And Space Complex (PKMTR)
Object type
Payload
Rocket body
Debris
Shape & HBR
Unknown shape, 0.1 m
Radar Cross Section
Medium (>0.1 m² and <1 m²)

Expand to show TLE details & history
Last TLE update: 3 days ago

TLE from 3 days ago
0 COSMOS 1375 DEB
1 17803U 82055AV  26171.24227926  .00000132  00000-0  20093-3 0  9993
2 17803  65.8309 220.8054 0050406 232.6168 189.7532 13.80906470 44311
Epoch: 2026-06-20T05:48Z
TLE epoch observation values (Epoch: 2026-06-20T05:48:52.928Z)
Latitude
53.97749°
Longitude
-96.99738°
Altitude
1,005.094 km
Speed
7.336 km/s
True Right ascension
17h 14m 43s
True Declination
53° 49' 09"
Sunlit
Object was in daylight at epoch
Visualization orbit readout
Latitude
Unknown
Longitude
Unknown
Altitude
Unknown
Speed
Unknown
Apparent Right ascension
Unknown
Apparent Declination
Unknown
Sunlit
N/A
Visualization observer readout
Local Sidereal Time
08:36:30
Azimuth
Unknown
Elevation
Unknown
Doppler factor
Unknown
Orbital elements
Apogee altitude
996.171 km
Perigee altitude
922.202 km
Semi-major axis
7,337.323 km
Eccentricity
0.00504
Inclination
65.8309°
RAAN
220.8054°
Arg. of periapsis
232.6168°
True anomaly
189.65595°
Mean anomaly
189.7532°
Eccentric anomaly
189.70452°
Mean motion
3.45332 °/min
Orbital period
104.25 mins
BSTAR
0.00020093
Loading maneuver chart data...
Computing Atmospheric mass density...
Loading historical data...
Loading historical data...
Loading historical data...
Loading historical data...
Loading historical data...
Loading historical data...
Loading historical data...

Documentation

Showing up to 5 results
|